星链-34411 (STARLINK-34411)

导读 | 豆包AI

STARLINK-34411是美国SpaceX公司星链(Starlink)星座的卫星,于2025年8月31日发射入轨。星链星座旨在构建全球低轨卫星互联网,为偏远欠发达地区提供高速低延迟宽带服务。该卫星部署于近地轨道,延续星链星座设计,通过规模化组网推进全球网络覆盖,助力实现天地一体化互联网基础设施建设,进一步拓展卫星互联网服务范围与能力。

基本信息
目录编号:
65414
目录名称:
STARLINK-34411
国际标识:
2025-192L
轨道中心:
EARTH
卫星名称:
星链-34411
卫星全名:
星链-34411 (STARLINK-34411)
卫星状态:
已陨落 最后检测时间 2026-04-01
发射日期:
2025-08-31 UTC
国别 :
美国 (US)
星等 :
--
轨道信息
数据来源 国际轨道数据
星历时间: 2026-04-01T08:36:59+0800
轨道信息已过期28天
半长轴: 6551.467km
偏心率: 0.0003668
轨道倾角: 53.121°
近地点辐角 107.364°
升交点赤经 105.314°
平近点角 252.780°
近地点: 170.926km
远地点: 175.734km
周期: 87.956分钟
每日圈数: 16.371747
详细信息
固有亮度:
5
最大亮度:
2.5
卫星平台:
Starlink V1.0
覆盖范围:
全球
运营商:
太空探索技术公司
运营商所在国:
美国
制造商(研发单位):
太空探索技术公司
制造商所在国:
美国
使用方式:
暂无
卫星简介
Starlink 计划是 SpaceX 推出的全球卫星互联网项目,通过发射低轨道卫星,为全球尤其是偏远地区提供高速、低延迟的互联网服务。自 2019 年起,Starlink 已部署数千颗卫星,旨在缩小全球数字鸿沟,推动互联网普及。该项目还为军事、航空等行业提供通信支持,带来广泛经济效益。